Location: Bartshausen
(51.8454°N, 9.8167°E)
Time: 10:03:34
(UTC+00:00)

CENTAUR R/B - Pass Details

Date: 08 November 2025
Orbit: 633 x 1547 km, 63.4° (Epoch: 11 December)

Event Time Altitude Azimuth Distance (km) Brightness Sun altitude
Exits shadow 02:05:07 34° 9° (N) 1,862 4.1 -40.0°
Drops below altitude 10° 02:11:32 10° 57° (ENE) 3,396 6.0 -39.1°
Sets 02:15:02 0° 66° (ENE) 4,492 6.9 -38.6°
